(89124) = 2001 UC3 = 1998 FY88

Discovered at Socorro on 2001-10-16 by LINEAR.

Orbit

Orbit type: Main Belt

Note: WebGL enabled browser required.

epoch2024-03-31.0
epoch JD2460400.5
perihelion date2019-01-09.39326
perihelion JD2458492.89326
argument of perihelion (°)56.39420
ascending node (°)61.09173
inclination (°)9.89380
eccentricity0.0990815
perihelion distance (AU)2.7642081
Tisserand w.r.t. Jupiter3.2
ΔV w.r.t. Earth (km/sec)10.8
semimajor axis (AU)3.0682111
mean anomaly (°)349.83628
mean daily motion (°/day)0.18339020
aphelion distance (AU)3.372
period (years)5.37
P-vector [x]-0.45068783
P-vector [y]0.75150297
P-vector [z]0.48179224
Q-vector [x]-0.87991848
Q-vector [y]-0.46492550
Q-vector [z]-0.09791703
absolute magnitude15.12
phase slope0.15
uncertainty0
referenceMPEC 2024-E123
observations used761
oppositions17
arc length (days)9423
first opposition used1998
last opposition used2024
residual rms (arc-secs)0.77
perturbers coarse indicatorM-v
perturbers precise indicator003Ek
first observation date used1998-03-24.0
last observation date used2024-01-10.0
computer nameMPCLINUX
JD of orbit computation2456877.744625
perihelion JD uncertainty (days)1.8818E-04
argument of perihelion uncertainty (°)4.5955E-05
ascending node uncertainty (°)2.4624E-05
inclination uncertainty (°)4.5115E-06
eccentricity uncertainty 3.6998E-08
perihelion distance uncertainty (AU)1.1747E-07
Minimum Orbit Intersection Distances (in AU)
for orbit epoch: 2460200.5, reference: E2024-AC4
Mercury2.43833
Venus2.05121
Earth1.79447
Mars1.155
Jupiter1.81005
Saturn6.22008
Uranus15.5788
Neptune26.7231

Observations

788 total observations over interval: 1998 03 24.15165 – 2024 01 10.424017
These data are available for download (format description).

Date (UT) J2000 RA J2000 Dec Magn Location Ref
1998 03 24.15165 11 24 29.77 +19 10 37.6 18.9   704 – Lincoln Laboratory ETS, New Mexico MPS 992
1998 03 24.17199 11 24 28.81 +19 10 42.3 19.7   704 – Lincoln Laboratory ETS, New Mexico MPS 992
1998 03 24.19271 11 24 27.79 +19 10 39.9 19.5   704 – Lincoln Laboratory ETS, New Mexico MPS 992
1998 03 24.21295 11 24 26.48 +19 10 44.4 19.5   704 – Lincoln Laboratory ETS, New Mexico MPS 992
1998 03 25.13023 11 23 44.92 +19 12 01.2 19.1   704 – Lincoln Laboratory ETS, New Mexico MPS 992
1998 03 25.15048 11 23 43.97 +19 12 01.5 19.7   704 – Lincoln Laboratory ETS, New Mexico MPS 992
1998 03 25.17098 11 23 43.16 +19 12 03.9 19.3   704 – Lincoln Laboratory ETS, New Mexico MPS 992
1998 03 25.19134 11 23 42.05 +19 12 06.3 19.3   704 – Lincoln Laboratory ETS, New Mexico MPS 992
1998 03 25.21169 11 23 40.77 +19 12 08.9 19.9   704 – Lincoln Laboratory ETS, New Mexico MPS 992
2001 10 10.41510 02 14 12.03 +04 50 17.9 19.6   644 – Palomar Mountain/NEAT MPS 44365
2001 10 10.43615 02 14 11.08 +04 50 14.8 20.2   644 – Palomar Mountain/NEAT MPS 44365
2001 10 10.45728 02 14 10.09 +04 50 11.5 20.4   644 – Palomar Mountain/NEAT MPS 44365
2001 10 16.25459 02 09 37.98 +04 35 57.6 19.0   704 – Lincoln Laboratory ETS, New Mexico MPS 39558
2001 10 16.27032 02 09 37.22 +04 35 55.1 19.3   704 – Lincoln Laboratory ETS, New Mexico MPS 39558
2001 10 16.28604 02 09 36.36 +04 35 53.4 19.6   704 – Lincoln Laboratory ETS, New Mexico MPS 39558
2001 10 16.30177 02 09 35.62 +04 35 51.1 19.0   704 – Lincoln Laboratory ETS, New Mexico MPS 39558
2001 10 16.31751 02 09 34.79 +04 35 49.9 19.0   704 – Lincoln Laboratory ETS, New Mexico MPS 39558
2001 10 17.23777 02 08 49.82 +04 33 36.7 18.9   704 – Lincoln Laboratory ETS, New Mexico MPS 39558
2001 10 17.26988 02 08 48.23 +04 33 33.2 19.2   704 – Lincoln Laboratory ETS, New Mexico MPS 39558
2001 10 17.28587 02 08 47.41 +04 33 30.0 19.2   704 – Lincoln Laboratory ETS, New Mexico MPS 39558
2001 10 24.38171 02 02 49.61 +04 17 42.3 19.2   644 – Palomar Mountain/NEAT MPS 40996
2001 10 24.40275 02 02 48.51 +04 17 39.7 19.0   644 – Palomar Mountain/NEAT MPS 40996
2001 10 24.42388 02 02 47.40 +04 17 37.2 19.2   644 – Palomar Mountain/NEAT MPS 40996
2001 11 18.23537 01 43 23.09 +03 53 33.6 20.0   704 – Lincoln Laboratory ETS, New Mexico MPS 42058
2001 11 18.25027 01 43 22.47 +03 53 33.8 19.7   704 – Lincoln Laboratory ETS, New Mexico MPS 42058
2001 11 18.26517 01 43 21.90 +03 53 35.1 19.5   704 – Lincoln Laboratory ETS, New Mexico MPS 42058
2001 11 18.28009 01 43 21.34 +03 53 35.2 19.8   704 – Lincoln Laboratory ETS, New Mexico MPS 42058
2003 01 05.30350 09 21 35.68 +29 06 48.4 19.1 R 699 – Lowell Observatory-LONEOS MPS 69886
2003 01 05.31418 09 21 35.35 +29 06 52.6   699 – Lowell Observatory-LONEOS MPS 69886
2003 01 05.32488 09 21 35.03 +29 06 58.5   699 – Lowell Observatory-LONEOS MPS 69886
2003 01 05.33553 09 21 34.68 +29 07 02.2   699 – Lowell Observatory-LONEOS MPS 69886
2003 01 05.48041 09 21 30.03 +29 08 01.4 19.3 V 695 – Kitt Peak MPS 71552
2003 01 05.49789 09 21 29.54 +29 08 07.8 20.9 V 695 – Kitt Peak MPS 71552
2003 01 05.50664 09 21 29.12 +29 08 12.7 19.3 V 695 – Kitt Peak MPS 71552
2003 01 05.51538 09 21 28.89 +29 08 16.8 19.4 V 695 – Kitt Peak MPS 71552
2003 01 07.34674 09 20 30.82 +29 20 47.3 19.5   704 – Lincoln Laboratory ETS, New Mexico MPS 69886
2003 01 07.36203 09 20 30.28 +29 20 55.1 19.6   704 – Lincoln Laboratory ETS, New Mexico MPS 69886
2003 01 07.37712 09 20 29.68 +29 21 01.0 19.5   704 – Lincoln Laboratory ETS, New Mexico MPS 69886
2003 01 08.38514 09 19 55.43 +29 27 56.5 19.5   704 – Lincoln Laboratory ETS, New Mexico MPS 69886
2003 01 08.40022 09 19 54.74 +29 28 02.8 20.0   704 – Lincoln Laboratory ETS, New Mexico MPS 69886
2003 01 08.41455 09 19 54.30 +29 28 08.0 20.4   704 – Lincoln Laboratory ETS, New Mexico MPS 69886
2003 01 08.42900 09 19 53.61 +29 28 15.0 19.8   704 – Lincoln Laboratory ETS, New Mexico MPS 69886
2003 01 08.44339 09 19 53.15 +29 28 19.3 19.5   704 – Lincoln Laboratory ETS, New Mexico MPS 69886
2003 01 10.37763 09 18 42.99 +29 41 36.0 18.9   704 – Lincoln Laboratory ETS, New Mexico MPS 71552
2003 01 10.39398 09 18 42.38 +29 41 42.7 19.6   704 – Lincoln Laboratory ETS, New Mexico MPS 71552
2003 01 10.40981 09 18 41.71 +29 41 49.2 19.2   704 – Lincoln Laboratory ETS, New Mexico MPS 71552
2003 01 10.42823 09 18 40.97 +29 41 56.3 19.4   704 – Lincoln Laboratory ETS, New Mexico MPS 71552
2003 01 10.44454 09 18 40.34 +29 42 03.5 19.3   704 – Lincoln Laboratory ETS, New Mexico MPS 71552
2003 01 10.45848 09 18 39.85 +29 42 09.0 18.9   644 – Palomar Mountain/NEAT MPS 71552
2003 01 10.47905 09 18 39.04 +29 42 17.4 19.0   644 – Palomar Mountain/NEAT MPS 71552
2003 01 10.50068 09 18 38.17 +29 42 26.2 18.9   644 – Palomar Mountain/NEAT MPS 71552
2003 01 29.203160 09 03 37.615 +31 38 37.37 18.84 V 645 – Apache Point-Sloan Digital Sky Survey MPS 79957
2003 01 29.206632 09 03 37.415 +31 38 38.48 19.46   645 – Apache Point-Sloan Digital Sky Survey MPS 79957
2003 02 01.229230 09 00 49.833 +31 53 28.08 18.89 V 645 – Apache Point-Sloan Digital Sky Survey MPS 79957
2003 02 01.232702 09 00 49.636 +31 53 29.05 19.56   645 – Apache Point-Sloan Digital Sky Survey MPS 79957
2003 02 06.25475 08 56 10.99 +32 14 32.5 18.5 R 699 – Lowell Observatory-LONEOS MPS 73254
2003 02 06.27092 08 56 09.86 +32 14 36.5   699 – Lowell Observatory-LONEOS MPS 73254
2003 02 06.28714 08 56 08.92 +32 14 40.7   699 – Lowell Observatory-LONEOS MPS 73254
2003 02 06.30333 08 56 08.04 +32 14 43.7   699 – Lowell Observatory-LONEOS MPS 73254
2003 02 26.26894 08 40 22.97 +32 48 46.4 18.5 C 704 – Lincoln Laboratory ETS, New Mexico MPS 294023
2003 02 26.28242 08 40 22.39 +32 48 45.4 18.5 C 704 – Lincoln Laboratory ETS, New Mexico MPS 294023
2003 02 26.30938 08 40 21.50 +32 48 46.0 18.6 C 704 – Lincoln Laboratory ETS, New Mexico MPS 294023
2003 02 26.32285 08 40 20.96 +32 48 44.5 18.6 C 704 – Lincoln Laboratory ETS, New Mexico MPS 294023
2003 03 08.17144 08 35 45.82 +32 37 17.0 19.7   644 – Palomar Mountain/NEAT MPS 74081
2003 03 08.18193 08 35 45.60 +32 37 15.7 19.2   644 – Palomar Mountain/NEAT MPS 74081
2003 03 08.19243 08 35 45.37 +32 37 14.1 19.3   644 – Palomar Mountain/NEAT MPS 74081
2004 04 22.35764 15 05 40.71 -12 31 59.1 19.1   704 – Lincoln Laboratory ETS, New Mexico MPS 105053
2004 04 22.36826 15 05 40.14 -12 31 57.8 19.6   704 – Lincoln Laboratory ETS, New Mexico MPS 105053
2004 04 22.37900 15 05 39.68 -12 31 57.6 19.8   704 – Lincoln Laboratory ETS, New Mexico MPS 105053
2004 04 22.38972 15 05 39.22 -12 31 53.3 19.7   704 – Lincoln Laboratory ETS, New Mexico MPS 105053
2004 05 15.26336 14 46 27.54 -12 07 50.3 20.0   704 – Lincoln Laboratory ETS, New Mexico MPS 107358
2004 05 15.27276 14 46 27.13 -12 07 50.3 19.7   704 – Lincoln Laboratory ETS, New Mexico MPS 107358
2004 05 15.28272 14 46 26.57 -12 07 49.3 20.2   704 – Lincoln Laboratory ETS, New Mexico MPS 107358
2004 05 15.29199 14 46 26.12 -12 07 49.3 20.1   704 – Lincoln Laboratory ETS, New Mexico MPS 107358
2004 05 19.23030 14 43 17.76 -12 05 22.4 19.9 V 691 – Steward Observatory, Kitt Peak-Spacewatch MPS 107358
2004 05 19.25704 14 43 16.48 -12 05 21.8 19.7 V 691 – Steward Observatory, Kitt Peak-Spacewatch MPS 107358
2004 05 19.28353 14 43 15.20 -12 05 20.7 19.6 V 691 – Steward Observatory, Kitt Peak-Spacewatch MPS 107358
2004 05 21.28499 14 41 43.31 -12 04 26.9 19.4   704 – Lincoln Laboratory ETS, New Mexico MPS 108085
2004 05 21.29418 14 41 42.87 -12 04 25.3 19.7   704 – Lincoln Laboratory ETS, New Mexico MPS 108085
2004 05 21.31260 14 41 42.03 -12 04 26.1 19.9   704 – Lincoln Laboratory ETS, New Mexico MPS 108085
2004 05 21.32182 14 41 41.54 -12 04 25.7 20.0   704 – Lincoln Laboratory ETS, New Mexico MPS 108085
2004 05 28.25478 14 36 48.85 -12 03 22.3 20.1 V 691 – Steward Observatory, Kitt Peak-Spacewatch MPS 108470
2004 05 28.28536 14 36 47.61 -12 03 22.5 20.2 V 691 – Steward Observatory, Kitt Peak-Spacewatch MPS 108470
2004 05 28.35248 14 36 44.90 -12 03 22.7 19.9 V 691 – Steward Observatory, Kitt Peak-Spacewatch MPS 108470
2006 09 19.32088 00 30 51.51 -10 20 40.3 19.1 V 703 – Catalina Sky Survey MPS 180525
2006 09 19.33411 00 30 50.79 -10 20 45.3 18.9 V 703 – Catalina Sky Survey MPS 180525
